Weather History for Alexandroupoli, Greece

Change the Weather History Date:

Friday, October 4, 2013

  Actual Average Record
Temperature  
Mean Temperature 48 °F -  
Max Temperature 55 °F 67 °F 81 °F (2012)
Min Temperature 42 °F 49 °F 42 °F (2013)
Degree Days  
Heating Degree Days 16    
Moisture  
Dew Point 28 °F    
Average Humidity 43    
Maximum Humidity 70    
Minimum Humidity 23    
Precipitation  
Precipitation 0.00 in 0.07 in - ()
Sea Level Pressure  
Sea Level Pressure 30.40 in    
Wind  
Wind Speed - ()    
Max Wind Speed -    
Max Gust Speed -    
Visibility 6.0 miles    
Events      
Averages and records for this station are not official NWS values.
T = Trace of Precipitation, MM = Missing Value Source: Averaged Metar Reports

Daily Weather History Graph

Daily Weather History Graph

Search for Another Location

Airport:

Trip Planner

Search our weather history database for the weather conditions in past years. The results will help you decide how hot, cold, wet, or windy it might be!

Date:

Astronomy

Oct. 04, 2013 Rise Set
Actual Time 7:15 AM EEST 6:53 PM EEST
Civil Twilight 6:48 AM EEST 7:20 PM EEST
Nautical Twilight 6:16 AM EEST 7:52 PM EEST
Astronomical Twilight 5:44 AM EEST 8:24 PM EEST
Moon 6:31 AM EEST (10/4) 6:24 PM EEST (10/4)
Length of Visible Light 12h 32m
Length of Day
11h 37m
Waning Crescent, 1% of the Moon is Illuminated
Oct 4
Waning Crescent
Oct 5
New
Oct 12
First Quarter
Oct 19
Full
Oct 27
Last Quarter

Hourly Weather History & Observations

Time (EEST) Temp. Dew Point Humidity Pressure Visibility Wind Dir Wind Speed Gust Speed Precip Events Conditions
12:20 AM 48.2 °F 24.8 °F 40% 30.36 in - North - - N/A   Mostly Cloudy
12:50 AM 48.2 °F 26.6 °F 43% 30.36 in - North - - N/A   Mostly Cloudy
1:20 AM 48.2 °F 26.6 °F 43% 30.36 in - North - - N/A   Mostly Cloudy
1:50 AM 48.2 °F 24.8 °F 40% 30.36 in - North - - N/A   Mostly Cloudy
2:50 AM 46.4 °F 26.6 °F 46% 30.39 in - North - - N/A   Mostly Cloudy
3:00 AM 47 °F 27 °F 32% 30.39 in 6 mi Calm Calm - -   Partly Cloudy
3:20 AM 46.4 °F 26.6 °F 46% 30.39 in - North - - N/A   Mostly Cloudy
3:50 AM 46.4 °F 26.6 °F 46% 30.39 in - North - - N/A   Mostly Cloudy
4:50 AM 46.4 °F 28.4 °F 50% 30.39 in - North - - N/A   Mostly Cloudy
5:20 AM 46.4 °F 28.4 °F 50% 30.39 in - North - - N/A   Scattered Clouds
5:50 AM 42.8 °F 32.0 °F 66% 30.39 in - North - - N/A   Scattered Clouds
6:20 AM 42.8 °F 32.0 °F 66% 30.39 in - North - - N/A   Partly Cloudy
7:20 AM 42.8 °F 33.8 °F 70% 30.39 in - North - - N/A   Scattered Clouds
7:50 AM 42.8 °F 32.0 °F 66% 30.39 in - North - - N/A   Scattered Clouds
8:20 AM 42.8 °F 32.0 °F 66% 30.39 in - North - - N/A   Scattered Clouds
8:50 AM 46.4 °F 28.4 °F 50% 30.39 in - North - - N/A   Clear
9:00 AM 47 °F 28 °F 34% 30.41 in 6 mi Calm Calm - -   Scattered Clouds
9:20 AM 48.2 °F 28.4 °F 46% 30.42 in - North - - N/A   Scattered Clouds
9:50 AM 48.2 °F 26.6 °F 43% 30.42 in - North - - N/A   Scattered Clouds
10:20 AM 50.0 °F 26.6 °F 40% 30.42 in - North - - N/A   Scattered Clouds
10:50 AM 50.0 °F 24.8 °F 37% 30.42 in - North - - N/A   Scattered Clouds
11:20 AM 51.8 °F 24.8 °F 35% 30.42 in - North - - N/A   Scattered Clouds
11:50 AM 51.8 °F 26.6 °F 38% 30.42 in - North - - N/A   Partly Cloudy
12:20 PM 53.6 °F 26.6 °F 35% 30.42 in - North - - N/A   Partly Cloudy
12:50 PM 53.6 °F 28.4 °F 38% 30.42 in - North - - N/A   Partly Cloudy
1:20 PM 53.6 °F 28.4 °F 38% 30.42 in - North - - N/A   Scattered Clouds
1:50 PM 55.4 °F 32.0 °F 41% 30.42 in - North - - N/A   Scattered Clouds
2:20 PM 55.4 °F 32.0 °F 41% 30.42 in - North - - N/A   Scattered Clouds
2:50 PM 53.6 °F 26.6 °F 35% 30.42 in - North - - N/A   Scattered Clouds
3:00 PM 53 °F 26 °F 23% 30.43 in 6 mi Calm Calm - -   Scattered Clouds
3:20 PM 53.6 °F 26.6 °F 35% 30.42 in - North - - N/A   Scattered Clouds
3:50 PM 53.6 °F 26.6 °F 35% 30.39 in - North - - N/A   Scattered Clouds
4:20 PM 53.6 °F 26.6 °F 35% 30.39 in - North - - N/A   Scattered Clouds
4:50 PM 51.8 °F 24.8 °F 35% 30.39 in - North - - N/A   Scattered Clouds
5:20 PM 51.8 °F 24.8 °F 35% 30.39 in - North - - N/A   Scattered Clouds
5:50 PM 50.0 °F 26.6 °F 40% 30.39 in - North - - N/A   Scattered Clouds
6:20 PM 50.0 °F 26.6 °F 40% 30.39 in - North - - N/A   Scattered Clouds
6:50 PM 50.0 °F 24.8 °F 37% 30.39 in - North - - N/A   Mostly Cloudy
7:20 PM 50.0 °F 26.6 °F 40% 30.39 in - North - - N/A   Mostly Cloudy
7:50 PM 50.0 °F 26.6 °F 40% 30.42 in - North - - N/A   Mostly Cloudy
8:20 PM 50.0 °F 26.6 °F 40% 30.42 in - North - - N/A   Mostly Cloudy
8:50 PM 48.2 °F 28.4 °F 46% 30.42 in - North - - N/A   Mostly Cloudy
9:00 PM 49 °F 28 °F 32% 30.44 in 6 mi Calm Calm - -   Scattered Clouds
9:20 PM 48.2 °F 28.4 °F 46% 30.42 in - North - - N/A   Mostly Cloudy
9:50 PM 48.2 °F 30.2 °F 50% 30.45 in - North - - N/A   Mostly Cloudy
10:20 PM 48.2 °F 30.2 °F 50% 30.45 in - North - - N/A   Mostly Cloudy